Find Local Weather

World > North America > United States > Florida

Miami, Florida Regional Weather

Lat: 25.77N, Lon: 80.2W
Wx Zone: FLZ074
Feedback
Expires:201812190800;;014890
ASUS42 KTBW 190716
RWRFL 
FLORIDA REGIONAL WEATHER ROUNDUP
NATIONAL WEATHER SERVICE TAMPA BAY RUSKIN FL
200 AM EST WED DEC 19 2018

NOTE: "FAIR" INDICATES FEW OR NO CLOUDS BELOW 12,000 FEET WITH NO
SIGNIFICANT WEATHER AND/OR OBSTRUCTIONS TO VISIBILITY.


FLZ067-068-071>074-168-172>174-190800-
SOUTHEAST FLORIDA 
  
CITY           SKY/WX    TMP DP  RH WIND       PRES   REMARKS
W PALM BEACH   FAIR      58  54  86 CALM      30.05F                  
FT LAUDER-EXEC FAIR      62  60  93 CALM      30.03F                  
FT LAUDERDALE  MOCLDY    64  62  93 W3        30.03F                  
POMPANO BEACH  FAIR      61  57  87 NW5       30.04F                  
PEMBROKE PINES MOCLDY    62  58  86 CALM      30.05F                  
OPA LOCKA      FAIR      63  61  93 CALM      30.04F                  
MIAMI          FAIR      65  60  83 CALM      30.04F                  
WEST KENDALL   FAIR      56  55  97 CALM      30.04F                  
HOMESTEAD      FAIR      60  58  93 CALM      30.03F                  

STATION/POSITION SKY/WX   TEMP    WIND        PRES    WAVE   SWELL
                          AIR SEA DIR/SP/G            HT/PER HT/PER
                          (F)     (DEG/KT/KT) (MB)    (FT/S) (FT/S)
PORT EVERGLADES            73      90/  5/  7 1017.0F
VIRGINIA KEY               72 72   90/  5/  7 1016.8F
LAKE WORTH                 65 76  300/  4/  5 1018.3F
FOWEY ROCKS                72 76  100/ 11/ 14 1017.5F
SETTLEMENT POINT           70      70/  7/  9 1017.8F

$$

  

SKY/WX - Weather  TMP - Temperature  DP - Dew Point  RH - Relative Humidity
WIND - Wind Direction/Speed PRES - Barometric Pressure